CW3181 Weather Reports


Display with metric or nautical units.
time (UTC)temp
F
wind
direction
speed
MPH
gust
MPH
rain 1hr
in
rain 24hr
in
rain mn
in
humidity
%
barometer
mb
20170625103024 79 55 0.0 0.0 0.00 0.00 0.00 90 1018.5
20170625102026 79 55 0.0 0.0 0.00 0.00 0.00 90 1018.4
20170625101014 79 55 0.0 0.0 0.00 0.00 0.00 90 1018.4
20170625100019 79 55 0.0 0.0 0.00 0.00 0.00 90 1018.5
20170625095016 79 55 0.0 0.0 0.00 0.00 0.00 90 1018.4
20170625094012 79 55 0.0 0.0 0.00 0.00 0.00 90 1018.2
20170625093025 79 55 0.0 0.0 0.00 0.00 0.00 90 1018.2
20170625092030 79 55 0.0 0.0 0.00 0.00 0.00 90 1018.2
20170625091025 79 55 0.0 0.0 0.00 0.00 0.00 89 1018.2
20170625090028 79 55 0.0 0.0 0.00 0.00 0.00 89 1018.2
20170625085020 80 55 0.0 0.0 0.00 0.00 0.00 89 1018.1
20170625084024 80 55 0.0 0.0 0.00 0.00 0.00 89 1018.1
20170625083029 79 55 0.0 0.0 0.00 0.00 0.00 88 1018.0
20170625082017 80 55 0.0 0.0 0.00 0.00 0.00 88 1018.0
20170625081024 79 82 0.0 0.0 0.00 0.00 0.00 86 1018.0
20170625080030 80 76 0.0 0.0 0.00 0.00 0.00 87 1017.9
20170625075031 80 82 0.0 0.0 0.00 0.00 0.00 86 1017.9
20170625074019 80 81 0.0 0.0 0.00 0.00 0.00 86 1018.1
20170625073031 80 79 0.0 0.0 0.00 0.00 0.00 87 1018.1
20170625072017 80 69 0.0 0.0 0.00 0.00 0.00 88 1018.2
20170625071020 81 78 0.0 0.0 0.00 0.00 0.00 89 1018.2
20170625070032 80 84 0.0 0.0 0.00 0.00 0.00 89 1018.2
20170625065017 80 64 0.0 0.0 0.00 0.00 0.00 90 1018.2
20170625064021 80 56 0.0 0.0 0.00 0.00 0.00 90 1018.0
20170625063025 80 48 0.0 0.0 0.00 0.00 0.00 90 1018.1
20170625062030 81 314 0.0 0.0 0.00 0.00 0.00 90 1018.2
20170625061033 81 314 0.0 0.0 0.00 0.00 0.00 91 1018.2
20170625060026 81 314 0.0 0.0 0.00 0.00 0.00 91 1018.3
20170625055030 81 314 0.0 0.0 0.00 0.00 0.00 91 1018.4
20170625054029 81 314 0.0 0.0 0.00 0.00 0.00 91 1018.6
20170625053030 81 314 0.0 0.0 0.00 0.00 0.00 91 1018.7
20170625052016 81 314 0.0 0.0 0.00 0.00 0.00 91 1018.8
20170625051024 81 314 0.0 0.0 0.00 0.00 0.00 90 1018.9
20170625050028 81 314 0.0 0.0 0.00 0.00 0.00 89 1018.9
20170625045032 81 314 0.0 0.0 0.00 0.00 0.00 90 1019.0
20170625044016 81 314 0.0 0.0 0.00 0.00 0.00 89 1018.9
20170625043019 80 314 0.0 0.0 0.00 0.00 0.00 89 1018.9
20170625042027 80 314 0.0 0.0 0.00 0.00 0.13 88 1019.0
20170625041029 80 314 0.0 0.0 0.00 0.00 0.13 89 1019.0
20170625040017 80 314 0.0 0.0 0.00 0.00 0.13 90 1019.1
20170625035015 80 314 0.0 0.0 0.00 0.00 0.13 91 1019.0
20170625034015 80 314 0.0 0.0 0.00 0.00 0.13 90 1019.0
20170625033027 80 314 0.0 0.0 0.00 0.00 0.13 91 1018.9
20170625032014 80 314 0.0 0.0 0.00 0.00 0.13 90 1018.9
20170625031015 80 314 0.0 0.0 0.00 0.00 0.13 90 1018.9
20170625030022 80 314 0.0 0.0 0.00 0.00 0.13 90 1018.7
20170625025013 80 314 0.0 0.0 0.00 0.00 0.13 90 1018.7
20170625024021 80 314 0.0 0.0 0.00 0.00 0.13 90 1018.7
20170625023027 80 314 0.0 0.0 0.00 0.00 0.13 89 1018.6
20170625022015 80 314 0.0 0.0 0.00 0.00 0.13 89 1018.3
20170625021022 80 314 0.0 0.0 0.00 0.00 0.13 89 1018.2
20170625020017 80 336 0.0 0.0 0.00 0.00 0.13 90 1018.1
20170625015028 79 337 0.0 0.0 0.00 0.00 0.13 90 1018.0
20170625014028 79 337 0.0 0.0 0.00 0.00 0.13 90 1017.8
20170625013021 79 337 0.0 0.0 0.00 0.00 0.13 90 1018.0
20170625012027 79 318 0.0 0.0 0.00 0.00 0.13 90 1017.9
20170625011033 79 284 1.0 0.0 0.00 0.00 0.13 89 1017.8
20170625010019 80 259 0.0 0.0 0.00 0.00 0.13 90 1017.9
20170625005021 80 219 1.0 0.0 0.00 0.00 0.13 89 1017.8
20170625004031 80 184 0.0 0.0 0.00 0.00 0.13 88 1017.7
20170625003028 80 144 0.0 0.0 0.00 0.00 0.13 85 1017.8
20170625002029 82 133 1.0 0.0 0.00 0.00 0.11 84 1017.8
20170625001031 83 86 0.0 0.0 0.00 0.00 0.06 82 1017.6
20170625000016 84 162 0.0 0.0 0.00 0.00 0.00 77 1017.4
20170624235026 84 350 0.0 0.0 0.00 0.00 0.00 77 1017.2
20170624234029 84 290 0.0 0.0 0.00 0.00 0.00 74 1017.0
20170624233015 85 309 0.0 0.0 0.00 0.00 0.00 76 1017.0
20170624232022 85 351 0.0 0.0 0.00 0.00 0.00 76 1017.0
20170624231024 86 351 0.0 0.0 0.00 0.00 0.00 74 1017.0
20170624230031 86 312 2.0 0.0 0.00 0.00 0.00 71 1017.0
20170624225023 86 279 3.0 0.0 0.00 0.00 0.00 71 1016.7
20170624224031 87 230 2.0 0.0 0.00 0.00 0.00 70 1016.6
20170624223030 87 240 3.0 0.0 0.00 0.00 0.00 69 1016.4
20170624222031 88 256 3.0 0.0 0.00 0.00 0.00 67 1016.5
20170624221020 88 261 2.0 0.0 0.00 0.00 0.00 67 1016.3
20170624220030 88 256 2.0 0.0 0.00 0.00 0.00 67 1016.2
20170624215016 88 269 3.0 0.0 0.00 0.00 0.00 69 1016.2
20170624214022 88 234 4.0 0.0 0.00 0.00 0.00 70 1016.5
20170624213031 88 246 4.0 0.0 0.00 0.00 0.00 68 1016.6
20170624212016 89 276 4.0 0.0 0.00 0.00 0.00 69 1016.4
20170624211021 88 252 4.0 0.0 0.00 0.00 0.00 71 1016.5
20170624210028 89 254 2.0 0.0 0.00 0.00 0.00 70 1016.6
20170624205014 89 227 2.0 0.0 0.00 0.00 0.00 69 1016.7
20170624204020 89 219 1.0 0.0 0.00 0.00 0.00 69 1016.9
20170624203013 89 228 1.0 0.0 0.00 0.00 0.00 69 1016.9
20170624202021 90 209 1.0 0.0 0.00 0.00 0.00 67 1017.1
20170624201032 89 206 1.0 0.0 0.00 0.00 0.00 66 1017.0
20170624200018 90 208 1.0 0.0 0.00 0.00 0.00 66 1017.0
20170624195032 90 225 1.0 0.0 0.00 0.00 0.00 65 1017.0
20170624194019 90 245 1.0 0.0 0.00 0.00 0.00 63 1017.2
20170624193030 90 225 1.0 0.0 0.00 0.00 0.00 63 1017.2
20170624192012 90 169 1.0 0.0 0.00 0.00 0.00 61 1017.2
20170624191018 91 208 1.0 0.0 0.00 0.00 0.00 60 1017.3
20170624190029 90 186 1.0 0.0 0.00 0.00 0.00 60 1017.4
20170624185029 90 165 1.0 0.0 0.00 0.00 0.00 60 1017.4
20170624184033 90 161 0.0 0.0 0.00 0.00 0.00 59 1017.5
20170624183022 90 157 1.0 0.0 0.00 0.00 0.00 59 1017.6
20170624182030 90 202 1.0 0.0 0.00 0.00 0.00 62 1017.9
20170624181031 89 158 0.0 0.0 0.00 0.00 0.00 63 1017.9
20170624180030 89 245 0.0 0.0 0.00 0.00 0.00 63 1018.0
20170624175026 89 185 0.0 0.0 0.00 0.00 0.00 64 1018.1
20170624174031 89 222 0.0 0.0 0.00 0.00 0.00 62 1018.2
20170624173026 89 192 0.0 0.0 0.00 0.00 0.00 64 1018.2
20170624172020 89 240 0.0 0.0 0.00 0.00 0.00 64 1018.3
20170624171034 88 173 0.0 0.0 0.00 0.00 0.00 63 1018.4
20170624170017 88 265 0.0 0.0 0.00 0.00 0.00 66 1018.3
20170624165028 89 141 0.0 0.0 0.00 0.00 0.00 63 1018.4
20170624164032 88 127 0.0 0.0 0.00 0.00 0.00 64 1018.5
20170624163021 88 194 0.0 0.0 0.00 0.00 0.00 65 1018.4
20170624162015 88 151 0.0 0.0 0.00 0.00 0.00 66 1018.4
20170624161021 88 143 1.0 0.0 0.00 0.00 0.00 66 1018.4
20170624160029 87 76 1.0 0.0 0.00 0.00 0.00 66 1018.3
20170624155016 87 138 1.0 0.0 0.00 0.00 0.00 68 1018.4
20170624154025 87 138 0.0 0.0 0.00 0.00 0.00 68 1018.5
20170624153035 87 90 0.0 0.0 0.00 0.00 0.00 70 1018.6
20170624152025 86 113 1.0 0.0 0.00 0.00 0.00 73 1018.5
20170624151015 86 122 1.0 0.0 0.00 0.00 0.00 71 1018.5
20170624150018 86 113 1.0 0.0 0.00 0.00 0.00 72 1018.4
20170624145025 86 90 0.0 0.0 0.00 0.00 0.00 74 1018.3
20170624144016 86 146 0.0 0.0 0.00 0.00 0.00 75 1018.2
20170624143035 85 144 1.0 0.0 0.00 0.00 0.00 76 1018.2
20170624142027 85 92 1.0 0.0 0.00 0.00 0.00 76 1018.0
20170624141027 85 96 1.0 0.0 0.00 0.00 0.00 77 1017.8
20170624140015 85 108 1.0 0.0 0.00 0.00 0.00 78 1017.7
20170624135027 85 71 1.0 0.0 0.00 0.00 0.00 79 1017.6
20170624134033 85 134 1.0 0.0 0.00 0.00 0.00 79 1017.5
20170624133016 84 123 1.0 0.0 0.00 0.00 0.00 80 1017.6
20170624132031 84 136 1.0 0.0 0.00 0.00 0.00 81 1017.4
20170624131025 84 98 0.0 0.0 0.00 0.00 0.00 82 1017.3
20170624130030 84 101 1.0 0.0 0.00 0.00 0.00 82 1017.2
20170624125026 84 86 0.0 0.0 0.00 0.00 0.00 82 1017.2
20170624124029 83 98 0.0 0.0 0.00 0.00 0.00 83 1017.1
20170624123023 83 109 0.0 0.0 0.00 0.00 0.00 83 1017.1
20170624122016 82 109 0.0 0.0 0.00 0.00 0.00 84 1017.1
20170624121028 82 110 0.0 0.0 0.00 0.00 0.00 85 1017.1
20170624120017 81 100 0.0 0.0 0.00 0.00 0.00 87 1016.9
20170624115025 81 80 0.0 0.0 0.00 0.00 0.00 88 1016.8
20170624114027 80 84 0.0 0.0 0.00 0.00 0.00 89 1016.7
20170624113018 80 77 0.0 0.0 0.00 0.00 0.00 89 1016.8
20170624112028 79 72 0.0 0.0 0.00 0.00 0.00 90 1016.8
20170624111019 79 80 0.0 0.0 0.00 0.00 0.00 90 1016.7
20170624110024 79 80 0.0 0.0 0.00 0.00 0.00 90 1016.7
20170624105019 79 84 0.0 0.0 0.00 0.00 0.00 90 1016.5
20170624104030 79 69 0.0 0.0 0.00 0.00 0.00 90 1016.5